Tracking 19572 objects as of 23-Feb-2019
HD Live streaming from Space Station
objects crossing your sky now

COSMOS 1304

Track COSMOS 1304 now!
10-day predictions
COSMOS 1304 is classified as:


NORAD ID: 12803
Int'l Code: 1981-087A
Perigee: 912.0 km
Apogee: 977.2 km
Inclination: 82.9 °
Period: 103.8 minutes
Semi major axis: 7315 km
RCS: 1.592 m2 (large)
Launch date: September 4, 1981
Source: Commonwealth of Independent States (former USSR) (CIS)
Launch site: PLESETSK MISSILE AND SPACE COMPLEX (PKMTR)
aabbcc
Your satellite tracking list
Your tracking list is empty




NASA's NSSDC Master Catalog

Two Line Element Set (TLE):
1 12803U 81087A   19054.12250630  .00000034  00000-0  16170-4 0  9992
2 12803  82.9321 267.6018 0044540 273.9259  85.6813 13.87478555272729
Source of the keplerian elements: AFSPC